GW2877 Weather Reports


time (UTC)temp
F
wind
direction
speed
knots
gust
knots
rain 1hr
in
rain 24hr
in
rain mn
in
humidity
%
barometer
mb
20260503194602 86 239 1.7 4.3 0.01 0.01 0.01 45 1009.3
20260503194043 86 323 0.9 3.5 0.01 0.01 0.01 48 1009.3
20260503193542 85 186 1.7 4.3 0.01 0.01 0.01 48 1009.3
20260503193058 85 293 1.7 4.3 0.01 0.01 0.01 46 1009.5
20260503192542 85 155 1.7 4.3 0.01 0.01 0.01 48 1009.5
20260503192042 85 237 1.7 4.3 0.01 0.01 0.01 49 1009.5
20260503191554 85 246 0.9 3.5 0.01 0.01 0.01 47 1009.5
20260503191043 84 233 0.9 3.5 0.01 0.01 0.01 48 1009.4
20260503190548 84 156 0.9 3.5 0.01 0.01 0.01 47 1009.6
20260503190051 84 146 0.9 5.2 0.01 0.01 0.01 48 1009.6
20260503185542 83 228 1.7 5.2 0.01 0.01 0.01 48 1009.6
20260503185046 84 310 1.7 5.2 0.01 0.01 0.01 45 1009.7
20260503184603 83 164 1.7 5.2 0.00 0.00 0.00 49 1009.7
20260503184043 83 250 0.9 3.5 0.00 0.00 0.00 47 1009.7
20260503183542 82 186 0.9 3.5 0.00 0.00 0.00 47 1009.8
20260503183057 82 153 0.9 5.2 0.00 0.00 0.00 49 1009.7
20260503182544 81 163 1.7 5.2 0.00 0.00 0.00 49 1009.8
20260503182043 80 174 1.7 4.3 0.00 0.00 0.00 52 1009.8
20260503181554 80 303 1.7 4.3 0.00 0.00 0.00 53 1009.8
20260503181042 79 263 1.7 4.3 0.00 0.00 0.00 55 1009.8
20260503180546 79 281 1.7 4.3 0.00 0.00 0.00 58 1009.8
20260503180106 78 269 1.7 3.5 0.00 0.00 0.00 60 1009.9
20260503175541 78 185 0.9 2.6 0.00 0.00 0.00 61 1010.0
20260503175042 77 306 0.9 2.6 0.00 0.00 0.00 60 1009.9
20260503174610 76 271 0.9 3.5 0.00 0.00 0.00 60 1010.0
20260503174045 76 306 0.9 3.5 0.00 0.00 0.00 63 1010.0
20260503173543 75 225 0.9 2.6 0.00 0.00 0.00 63 1010.0
20260503173108 75 244 0.9 2.6 0.00 0.00 0.00 63 1010.1
20260503172543 74 163 0.9 1.7 0.00 0.00 0.00 64 1010.1
20260503172042 74 184 0.0 2.6 0.00 0.00 0.00 65 1010.2
20260503171550 73 322 0.9 2.6 0.00 0.00 0.00 69 1010.2
20260503171043 72 295 0.9 1.7 0.00 0.00 0.00 70 1010.2
20260503170544 72 180 0.9 2.6 0.00 0.00 0.00 73 1010.2
20260503170111 71 302 0.9 2.6 0.00 0.00 0.00 74 1010.2
20260503160107 60 128 0.0 0.9 0.00 0.00 0.00 90 1010.8
20260503150545 53 111 0.0 0.9 0.00 0.00 0.00 94 1011.2
20260503131044 50 0 0.0 3.5 0.00 0.00 0.00 95 1011.2
20260503130544 50 33 0.9 3.5 0.00 0.00 0.00 95 1011.1
20260503110544 49 92 0.0 0.9 0.00 0.00 0.00 95 1011.7
20260503081048 49 0 0.0 0.9 0.00 0.00 0.00 94 1012.8
20260503080547 49 0 0.0 0.9 0.00 0.00 0.00 94 1012.8
20260503072544 49 0 0.0 0.9 0.00 0.00 0.00 94 1012.8
20260503072045 49 0 0.0 0.9 0.00 0.00 0.00 94 1013.0
20260503071602 49 0 0.0 0.9 0.00 0.00 0.00 94 1013.0
20260503071045 49 106 0.0 0.9 0.00 0.00 0.00 93 1013.0
20260503070544 49 0 0.0 0.9 0.00 0.00 0.00 93 1012.9
20260503060111 50 0 0.0 0.9 0.00 0.00 0.00 93 1013.2
20260503055043 50 0 0.0 0.0 0.00 0.00 0.00 93 1013.3
20260503054602 51 0 0.0 0.0 0.00 0.00 0.00 92 1013.5
20260503054046 51 0 0.0 0.0 0.00 0.00 0.00 92 1013.6
20260503053544 51 0 0.0 0.0 0.00 0.00 0.00 92 1013.7
20260503053054 51 0 0.0 0.0 0.00 0.00 0.00 92 1013.8
20260503052542 51 0 0.0 0.0 0.00 0.00 0.00 92 1013.8
20260503052043 51 0 0.0 0.0 0.00 0.00 0.00 92 1013.7
20260503051552 51 0 0.0 0.0 0.00 0.00 0.00 92 1013.6
20260503051044 51 0 0.0 0.9 0.00 0.00 0.00 92 1013.5
20260503050541 51 0 0.0 0.9 0.00 0.00 0.00 92 1013.6
20260503050059 52 0 0.0 0.9 0.00 0.00 0.00 91 1013.6
20260503045546 52 0 0.0 0.9 0.00 0.00 0.00 91 1013.6
20260503045042 52 0 0.0 0.9 0.00 0.00 0.00 91 1013.5
20260503044556 52 106 0.0 0.9 0.00 0.00 0.00 91 1013.5
20260503044042 52 0 0.0 0.9 0.00 0.00 0.00 91 1013.6
20260503043542 52 0 0.0 0.9 0.00 0.00 0.00 91 1013.6
20260503043053 52 0 0.0 0.9 0.00 0.00 0.00 91 1013.7
20260503042542 53 0 0.0 0.9 0.00 0.00 0.00 90 1013.7
20260503042043 53 0 0.0 0.0 0.00 0.00 0.00 90 1013.7
20260503041556 53 0 0.0 0.0 0.00 0.00 0.00 90 1013.7
20260503041045 53 0 0.0 0.0 0.00 0.00 0.00 90 1013.6
20260503040541 53 0 0.0 0.0 0.00 0.00 0.00 90 1013.7
20260503040057 54 0 0.0 0.0 0.00 0.00 0.00 90 1013.6
20260503035543 54 0 0.0 0.0 0.00 0.00 0.00 89 1013.6
20260503035044 54 0 0.0 0.0 0.00 0.00 0.00 89 1013.5
20260503034554 54 0 0.0 0.0 0.00 0.00 0.00 89 1013.5
20260503034043 54 0 0.0 4.3 0.00 0.00 0.00 89 1013.3
20260503033545 54 167 0.0 4.3 0.00 0.00 0.00 89 1013.3
20260503033052 54 169 0.9 4.3 0.00 0.00 0.00 89 1013.2
20260503032542 55 182 0.9 5.2 0.00 0.00 0.00 88 1013.2
20260503032043 55 155 0.9 5.2 0.00 0.00 0.00 88 1013.2
20260503031551 55 150 0.9 2.6 0.00 0.00 0.00 88 1013.3
20260503031043 55 175 0.9 2.6 0.00 0.00 0.00 87 1013.2
20260503030543 55 182 1.7 2.6 0.00 0.00 0.00 87 1013.1
20260503030058 56 262 0.0 1.7 0.00 0.00 0.00 87 1013.0
20260503025543 56 186 0.0 1.7 0.00 0.00 0.00 87 1012.9
20260503025046 56 190 0.0 1.7 0.00 0.00 0.00 87 1012.8
20260503024549 56 178 0.0 1.7 0.00 0.00 0.00 87 1012.6
20260503024043 56 184 0.9 4.3 0.00 0.00 0.00 86 1012.5
20260503023542 56 191 0.9 4.3 0.00 0.00 0.00 86 1012.5
20260503023057 56 325 0.9 2.6 0.00 0.00 0.00 86 1012.6
20260503022543 56 196 0.9 3.5 0.00 0.00 0.00 86 1012.5
20260503022042 56 184 0.9 4.3 0.00 0.00 0.00 86 1012.7
20260503021556 56 159 0.9 5.2 0.00 0.00 0.00 85 1012.5
20260503021044 56 193 2.6 5.2 0.00 0.00 0.00 85 1012.4
20260503020544 57 208 2.6 4.3 0.00 0.00 0.00 85 1012.6
20260503020058 57 195 1.7 4.3 0.00 0.00 0.00 84 1012.6
20260503015544 57 187 1.7 4.3 0.00 0.00 0.00 84 1012.6
20260503015043 57 177 0.9 6.1 0.00 0.00 0.00 84 1012.4
20260503014546 58 219 1.7 6.1 0.00 0.00 0.00 83 1012.5
20260503014043 58 180 0.9 5.2 0.00 0.00 0.00 82 1012.6
20260503013543 58 215 1.7 5.2 0.00 0.00 0.00 82 1012.6
20260503013051 58 163 2.6 4.3 0.00 0.00 0.00 81 1012.6
20260503012544 59 180 1.7 4.3 0.00 0.00 0.00 81 1012.6
20260503012041 59 247 1.7 4.3 0.00 0.00 0.00 80 1012.8
20260503011549 59 218 2.6 4.3 0.00 0.00 0.00 79 1012.7
20260503011041 60 178 2.6 7.0 0.00 0.00 0.00 78 1012.7
20260503010542 60 235 1.7 7.0 0.00 0.00 0.00 78 1012.7
20260503010058 61 173 1.7 5.2 0.00 0.00 0.00 77 1012.7
20260503005540 61 186 1.7 5.2 0.00 0.00 0.00 77 1012.7
20260503005041 61 348 1.7 5.2 0.00 0.00 0.00 76 1012.5
20260503004559 62 228 0.9 5.2 0.00 0.00 0.00 75 1012.5
20260503004044 62 223 1.7 6.1 0.00 0.00 0.00 74 1012.5
20260503003543 63 190 1.7 6.1 0.00 0.00 0.00 73 1012.5
20260503003115 63 346 2.6 7.0 0.00 0.00 0.00 72 1012.6
20260503002544 64 250 1.7 7.8 0.00 0.00 0.00 72 1012.5
20260503002043 65 260 1.7 7.8 0.00 0.00 0.00 70 1012.5
20260503001605 65 278 1.7 7.8 0.00 0.00 0.00 71 1012.6
20260503001047 65 219 1.7 5.2 0.00 0.00 0.00 70 1012.7
20260503000542 64 171 1.7 5.2 0.00 0.00 0.00 71 1012.7
20260503000051 65 210 2.6 6.1 0.00 0.00 0.00 70 1012.7
20260502235540 65 183 2.6 6.1 0.00 0.00 0.00 70 1012.8
20260502235043 65 236 1.7 4.3 0.00 0.00 0.00 70 1012.8
20260502234552 64 220 0.9 7.0 0.00 0.00 0.00 71 1012.8
20260502234043 64 240 1.7 7.0 0.00 0.00 0.00 71 1012.9
20260502233544 64 232 2.6 7.0 0.00 0.00 0.00 70 1012.9
20260502233048 64 209 0.9 7.8 0.00 0.00 0.00 70 1012.9
20260502232546 65 192 1.7 7.8 0.00 0.00 0.00 70 1012.9
20260502232043 65 227 2.6 7.0 0.00 0.00 0.00 68 1012.9
20260502231552 65 235 1.7 5.2 0.00 0.00 0.00 70 1013.0
20260502231043 65 232 0.9 7.0 0.00 0.00 0.00 70 1013.1
20260502230543 65 193 1.7 8.7 0.00 0.00 0.00 70 1013.2
20260502230051 65 249 1.7 8.7 0.00 0.00 0.00 70 1013.2
20260502225549 65 223 1.7 5.2 0.00 0.00 0.00 70 1013.2
20260502225043 64 59 1.7 7.8 0.00 0.00 0.00 71 1013.2
20260502224556 64 156 2.6 7.8 0.00 0.00 0.00 71 1013.4
20260502224043 63 252 1.7 8.7 0.00 0.00 0.00 71 1013.4
20260502223543 64 208 2.6 7.8 0.00 0.00 0.00 70 1013.4
20260502223052 64 186 1.7 6.1 0.00 0.00 0.00 71 1013.4
20260502222543 64 186 2.6 7.0 0.00 0.00 0.00 71 1013.5
20260502222042 63 59 1.7 7.0 0.00 0.00 0.00 71 1013.7
20260502221552 63 237 1.7 6.1 0.00 0.00 0.00 71 1013.7
20260502221043 64 230 1.7 7.0 0.00 0.00 0.00 71 1013.6
20260502220542 64 261 1.7 7.0 0.00 0.00 0.00 71 1013.6
20260502220053 64 148 2.6 7.0 0.00 0.00 0.00 72 1013.6
20260502215542 64 340 2.6 6.1 0.00 0.00 0.00 72 1013.6
20260502215043 64 319 1.7 6.1 0.00 0.00 0.00 71 1013.6
20260502214549 64 86 1.7 6.1 0.00 0.00 0.00 70 1013.7
20260502214043 65 191 1.7 6.1 0.00 0.00 0.00 71 1013.8
20260502213543 64 350 1.7 5.2 0.00 0.00 0.00 71 1013.9
20260502213104 64 190 2.6 4.3 0.00 0.00 0.00 71 1013.9
20260502212543 63 223 2.6 4.3 0.00 0.00 0.00 72 1013.9
20260502212043 63 229 1.7 4.3 0.00 0.00 0.00 73 1013.9
20260502211554 62 206 1.7 5.2 0.00 0.00 0.00 73 1013.9
20260502211043 62 184 1.7 5.2 0.00 0.00 0.00 72 1014.0
20260502210542 62 245 2.6 5.2 0.00 0.00 0.00 73 1014.2
20260502210054 62 186 1.7 7.0 0.00 0.00 0.00 73 1014.3
20260502205542 62 211 1.7 7.0 0.00 0.00 0.00 73 1014.4
20260502205043 62 217 0.9 4.3 0.00 0.00 0.00 75 1014.7
20260502204550 61 306 1.7 4.3 0.00 0.00 0.00 74 1014.6
20260502204047 61 235 1.7 7.8 0.00 0.00 0.00 73 1014.7
20260502203543 62 111 1.7 7.8 0.00 0.00 0.00 72 1014.6
20260502203053 63 299 1.7 6.1 0.00 0.00 0.00 71 1014.5
20260502202543 63 180 2.6 6.1 0.00 0.00 0.00 71 1014.3
20260502202043 63 263 1.7 6.1 0.00 0.00 0.00 71 1014.4
20260502201556 63 221 2.6 5.2 0.00 0.00 0.00 73 1014.5
20260502201043 63 218 1.7 5.2 0.00 0.00 0.00 70 1014.5
20260502200543 63 181 1.7 5.2 0.00 0.00 0.00 71 1014.4
20260502200110 0 0.0 0.0 0.00 0.00 0.00 1014.7
20260502195801 0 0.0 0.0 0.00 0.00 0.00 1014.9